When you browse on this site, cookies collect data to enhance your experience and personalize the content and advertising you see.
Visit our Privacy Policy to learn more. By continuing to use the site, you agree to this use of cookies and data.
  • In Hungary
  • List of Countries
  • For 7 days
  • Water Temperature
  • Satellite Maps
  • Weather Map
  • News
  • Weather Widgets
  • user-avatar
    Login

    Hourly Weather Chirala

    Today, 21 November, Wednesday

    Time Temperature Precipitation Wind Pressure Humidity
    00:00 +27°C° 0 mm 3 mps 759 mmHg 83%
    01:00 +27°C° 0 mm 3 mps 759 mmHg 85%
    02:00 +26°C° 0 mm 3 mps 759 mmHg 86%
    03:00 +26°C° 0 mm 3 mps 759 mmHg 87%
    04:00 +26°C° 0 mm 3 mps 759 mmHg 88%
    05:00 +26°C° 0 mm 3 mps 759 mmHg 88%
    06:00 +27°C° 0 mm 3 mps 760 mmHg 85%
    07:00 +28°C° 0 mm 4 mps 760 mmHg 82%
    08:00 +28°C° 0 mm 4 mps 760 mmHg 79%
    09:00 +30°C° 0.1 mm 4 mps 760 mmHg 73%
    10:00 +32°C° 0.1 mm 5 mps 760 mmHg 67%
    11:00 +33°C° 0.1 mm 5 mps 760 mmHg 61%
    12:00 +33°C° 0.7 mm 5 mps 759 mmHg 63%
    13:00 +32°C° 0.7 mm 5 mps 759 mmHg 65%
    14:00 +32°C° 0.7 mm 5 mps 758 mmHg 67%
    15:00 +29°C° 0.8 mm 5 mps 758 mmHg 73%
    16:00 +28°C° 0.8 mm 5 mps 758 mmHg 80%
    17:00 +27°C° 0.8 mm 5 mps 758 mmHg 87%
    18:00 +27°C° 0.6 mm 4 mps 759 mmHg 87%
    19:00 +27°C° 0.6 mm 4 mps 760 mmHg 87%
    20:00 +26°C° 0.6 mm 4 mps 760 mmHg 87%
    21:00 +26°C° 0.7 mm 4 mps 760 mmHg 87%
    22:00 +26°C° 0.7 mm 4 mps 760 mmHg 87%
    23:00 +26°C° 0.7 mm 4 mps 760 mmHg 87%

    Tomorrow, 22 November, Thursday

    Time Temperature Precipitation Wind Pressure Humidity
    00:00 +26°C° 0.4 mm 3 mps 760 mmHg 87%
    01:00 +25°C° 0.4 mm 3 mps 760 mmHg 87%
    02:00 +25°C° 0.4 mm 3 mps 759 mmHg 86%
    03:00 +25°C° 0.3 mm 3 mps 759 mmHg 86%
    04:00 +25°C° 0.3 mm 3 mps 760 mmHg 86%
    05:00 +25°C° 0.3 mm 3 mps 760 mmHg 86%
    06:00 +25°C° 0.3 mm 3 mps 760 mmHg 85%
    07:00 +25°C° 0.3 mm 3 mps 761 mmHg 85%
    08:00 +26°C° 0.3 mm 3 mps 762 mmHg 85%
    09:00 +26°C° 0.2 mm 3 mps 761 mmHg 82%
    10:00 +27°C° 0.2 mm 3 mps 761 mmHg 79%
    11:00 +28°C° 0.2 mm 3 mps 761 mmHg 76%
    12:00 +28°C° 0 mm 3 mps 760 mmHg 72%
    13:00 +29°C° 0 mm 3 mps 760 mmHg 68%
    14:00 +30°C° 0 mm 3 mps 759 mmHg 64%
    15:00 +29°C° 0 mm 3 mps 759 mmHg 66%
    16:00 +28°C° 0 mm 2 mps 759 mmHg 69%
    17:00 +27°C° 0 mm 2 mps 759 mmHg 71%
    18:00 +27°C° 0 mm 2 mps 760 mmHg 73%
    19:00 +27°C° 0 mm 3 mps 760 mmHg 74%
    20:00 +27°C° 0 mm 3 mps 761 mmHg 76%
    21:00 +26°C° 0 mm 3 mps 761 mmHg 77%
    22:00 +26°C° 0 mm 2 mps 761 mmHg 79%
    23:00 +26°C° 0 mm 2 mps 761 mmHg 81%

    Day after tomorrow, 23 November, Friday

    Time Temperature Precipitation Wind Pressure Humidity
    00:00 +26°C° 0 mm 2 mps 761 mmHg 82%
    01:00 +26°C° 0 mm 2 mps 760 mmHg 83%
    02:00 +25°C° 0 mm 2 mps 760 mmHg 84%
    03:00 +25°C° 0 mm 2 mps 760 mmHg 85%
    04:00 +25°C° 0 mm 2 mps 760 mmHg 86%
    05:00 +25°C° 0 mm 3 mps 760 mmHg 86%
    06:00 +26°C° 0 mm 3 mps 761 mmHg 83%
    07:00 +27°C° 0 mm 3 mps 762 mmHg 81%
    08:00 +28°C° 0 mm 3 mps 762 mmHg 78%
    09:00 +29°C° 0 mm 3 mps 762 mmHg 71%
    10:00 +30°C° 0 mm 3 mps 762 mmHg 65%
    11:00 +31°C° 0 mm 3 mps 762 mmHg 59%
    12:00 +33°C° 0 mm 3 mps 761 mmHg 57%
    13:00 +33°C° 0 mm 3 mps 760 mmHg 54%
    14:00 +34°C° 0 mm 3 mps 760 mmHg 52%
    15:00 +31°C° 0 mm 3 mps 760 mmHg 58%
    16:00 +30°C° 0 mm 3 mps 760 mmHg 63%
    17:00 +29°C° 0 mm 3 mps 760 mmHg 69%
    18:00 +28°C° 0 mm 3 mps 760 mmHg 72%
    19:00 +28°C° 0 mm 2 mps 761 mmHg 75%
    20:00 +27°C° 0 mm 2 mps 762 mmHg 78%
    21:00 +27°C° 0 mm 2 mps 762 mmHg 79%
    22:00 +26°C° 0 mm 2 mps 761 mmHg 81%
    23:00 +26°C° 0 mm 1 mps 761 mmHg 82%

    24 November, Saturday

    Time Temperature Precipitation Wind Pressure Humidity
    00:00 +26°C° 0 mm 1 mps 761 mmHg 84%
    01:00 +26°C° 0 mm 1 mps 760 mmHg 85%
    02:00 +25°C° 0 mm 1 mps 760 mmHg 86%
    03:00 +25°C° 0 mm 1 mps 760 mmHg 87%
    04:00 +25°C° 0 mm 1 mps 760 mmHg 88%
    05:00 +25°C° 0 mm 1 mps 761 mmHg 89%
    06:00 +26°C° 0 mm 1 mps 761 mmHg 85%
    07:00 +27°C° 0 mm 1 mps 762 mmHg 80%
    08:00 +28°C° 0 mm 1 mps 763 mmHg 76%
    09:00 +30°C° 0 mm 1 mps 762 mmHg 69%
    10:00 +31°C° 0 mm 1 mps 762 mmHg 63%
    11:00 +33°C° 0 mm 1 mps 762 mmHg 56%
    12:00 +33°C° 0 mm 1 mps 761 mmHg 53%
    13:00 +33°C° 0 mm 1 mps 760 mmHg 51%
    14:00 +35°C° 0 mm 2 mps 759 mmHg 48%
    15:00 +32°C° 0 mm 2 mps 759 mmHg 53%
    16:00 +31°C° 0 mm 2 mps 759 mmHg 58%
    17:00 +30°C° 0 mm 2 mps 759 mmHg 63%
    18:00 +29°C° 0 mm 2 mps 760 mmHg 67%
    19:00 +28°C° 0 mm 2 mps 760 mmHg 72%
    20:00 +27°C° 0 mm 2 mps 761 mmHg 77%
    21:00 +27°C° 0 mm 2 mps 761 mmHg 79%
    22:00 +26°C° 0 mm 2 mps 761 mmHg 82%
    23:00 +26°C° 0 mm 2 mps 761 mmHg 85%

    25 November, Sunday

    Time Temperature Precipitation Wind Pressure Humidity
    00:00 +26°C° 0 mm 2 mps 760 mmHg 86%
    01:00 +25°C° 0 mm 2 mps 760 mmHg 87%
    02:00 +25°C° 0 mm 1 mps 759 mmHg 88%
    03:00 +25°C° 0 mm 1 mps 760 mmHg 87%
    04:00 +24°C° 0 mm 2 mps 760 mmHg 87%
    05:00 +24°C° 0 mm 2 mps 760 mmHg 86%
    06:00 +25°C° 0 mm 2 mps 761 mmHg 79%
    07:00 +26°C° 0 mm 2 mps 761 mmHg 72%
    08:00 +28°C° 0 mm 2 mps 762 mmHg 65%
    09:00 +29°C° 0 mm 2 mps 761 mmHg 58%
    10:00 +30°C° 0 mm 2 mps 761 mmHg 51%
    11:00 +32°C° 0 mm 2 mps 761 mmHg 44%
    12:00 +32°C° 0 mm 2 mps 760 mmHg 42%
    13:00 +34°C° 0 mm 2 mps 759 mmHg 41%
    14:00 +34°C° 0 mm 2 mps 758 mmHg 39%
    15:00 +32°C° 0 mm 2 mps 758 mmHg 45%
    16:00 +30°C° 0 mm 2 mps 758 mmHg 51%
    17:00 +29°C° 0 mm 2 mps 758 mmHg 58%
    18:00 +28°C° 0 mm 2 mps 759 mmHg 63%
    19:00 +27°C° 0 mm 2 mps 759 mmHg 68%
    20:00 +26°C° 0 mm 2 mps 760 mmHg 74%
    21:00 +25°C° 0 mm 2 mps 760 mmHg 77%
    22:00 +25°C° 0 mm 2 mps 760 mmHg 80%
    23:00 +25°C° 0 mm 2 mps 760 mmHg 84%

    26 November, Monday

    Time Temperature Precipitation Wind Pressure Humidity
    00:00 +24°C° 0 mm 1 mps 759 mmHg 85%
    01:00 +24°C° 0 mm 1 mps 759 mmHg 87%
    02:00 +24°C° 0 mm 1 mps 758 mmHg 88%
    03:00 +23°C° 0 mm 1 mps 759 mmHg 89%
    04:00 +23°C° 0 mm 1 mps 759 mmHg 89%
    05:00 +23°C° 0 mm 1 mps 759 mmHg 90%
    06:00 +24°C° 0 mm 1 mps 760 mmHg 84%
    07:00 +25°C° 0 mm 1 mps 760 mmHg 78%
    08:00 +27°C° 0 mm 2 mps 761 mmHg 73%
    09:00 +28°C° 0 mm 1 mps 760 mmHg 66%
    10:00 +30°C° 0 mm 1 mps 760 mmHg 58%
    11:00 +30°C° 0 mm 0 mps 760 mmHg 51%
    12:00 +32°C° 0 mm 1 mps 759 mmHg 49%
    13:00 +32°C° 0 mm 2 mps 758 mmHg 46%
    14:00 +32°C° 0 mm 2 mps 757 mmHg 44%
    15:00 +31°C° 0 mm 2 mps 757 mmHg 52%
    16:00 +29°C° 0 mm 3 mps 758 mmHg 60%
    17:00 +28°C° 0 mm 3 mps 758 mmHg 68%
    18:00 +27°C° 0 mm 3 mps 758 mmHg 71%
    19:00 +26°C° 0 mm 3 mps 759 mmHg 74%
    20:00 +26°C° 0 mm 3 mps 759 mmHg 77%
    21:00 +25°C° 0 mm 3 mps 759 mmHg 76%
    22:00 +25°C° 0 mm 2 mps 759 mmHg 76%
    23:00 +25°C° 0 mm 2 mps 759 mmHg 76%
    Show more